Location: Yoder Observing Site
(32.2942°N, 83.9813°W)
Time: 14:45:01
(UTC-05:00)

Tiangong 1 - Visible Passes

Search period start: 23 January 2018 00:00
Search period end: 02 February 2018 00:00
Orbit: 260 x 286 km, 42.8° (Epoch: 23 January)

Date Brightness Start Highest point End Pass type
(mag) Time Alt. Az. Time Alt. Az. Time Alt. Az.
23 Jan 1.9 19:29:34 10° WNW 19:31:09 34° WNW 19:31:09 34° WNW visible
24 Jan 1.8 19:28:38 10° WNW 19:30:56 35° SW 19:30:56 35° SW visible
25 Jan 3.2 19:27:56 10° W 19:29:38 17° SW 19:30:53 12° S visible
